Location: Doughton Park
(36.4224°N, 81.1835°W)
Time: 10:39:34
(UTC-04:00)

Amateur Radio Satellites - All Passes

Search period start: 29 August 2015 10:09
Search period end: 30 August 2015 10:09
Location: Doughton Park, 36.4224°N, 81.1835°W

Satellite Date Start Highest point End Downlink Frequencies (MHz)
Time Altitude Azimuth
DOVE 4 29 Aug 10:12:08 10:17:20 55° 286° (WNW) 10:22:28 437.250
UNISAT 6 29 Aug 10:14:02 10:17:20 20° 68° (ENE) 10:20:48 437.425
FUNcube-1 29 Aug 10:14:46 10:17:22 16° 91° (E) 10:20:07 145.935
AIST 1 29 Aug 10:17:55 10:20:49 17° 287° (WNW) 10:23:35
AAUSAT CUBESAT 2 29 Aug 10:20:59 10:25:07 74° 101° (E) 10:29:13 437.432
CUTE 1.7 + AOD 2 29 Aug 10:36:38 10:40:31 35° 287° (WNW) 10:44:19 437.475
BRITE-PL 29 Aug 10:39:47 10:42:29 13° 294° (WNW) 10:44:55 437.365/2234.400
CUSAT 1 29 Aug 10:41:38 10:46:42 19° 66° (ENE) 10:52:27 437.405
TIGRISAT 29 Aug 10:42:43 10:47:00 38° 72° (ENE) 10:51:23 435.000
QB50P2 29 Aug 10:43:09 10:45:05 13° 67° (ENE) 10:47:15 145.880/145.840
HO-68 29 Aug 10:43:53 10:50:54 56° 290° (WNW) 10:57:51 435.675
Cosmos 2491 29 Aug 10:44:04 10:52:43 63° 281° (W) 11:01:20 435.465 / 435.565
NANOSAT C BR1 29 Aug 10:46:26 10:48:28 14° 67° (ENE) 10:50:43 145.865
DANDE 29 Aug 10:48:31 10:52:12 15° 65° (ENE) 10:56:42 436.750
CANX-2 29 Aug 10:50:38 10:53:58 22° 290° (WNW) 10:57:12 2200.000
AUBIESAT-1 29 Aug 10:50:48 10:55:28 62° 70° (ENE) 11:00:09 437.475
M-CUBED/EXP-1 PRIME 29 Aug 10:53:03 10:57:49 78° 73° (ENE) 11:02:37 437.505
QB50P1 29 Aug 10:57:52 11:00:47 19° 69° (ENE) 11:03:52 145.935-145.965
ANTELSAT 29 Aug 10:58:13 11:02:46 59° 75° (ENE) 11:07:26 437.575/2403.000
Oscar 11 29 Aug 11:06:07 11:10:26 79° 283° (WNW) 11:14:43 145.826/435.025
DELFI C3 29 Aug 11:06:13 11:10:12 66° 101° (E) 11:14:08 145.870
PHONESAT 2.4 29 Aug 11:08:24 11:11:42 47° 10° (N) 11:15:01 2401.200-2431.200
SO-50 29 Aug 11:11:25 11:16:07 43° 54° (NE) 11:20:43 436.795
UKube-1 29 Aug 11:12:34 11:14:21 13° 91° (E) 11:16:24 .
HUMSAT D 29 Aug 11:16:34 11:20:17 30° 96° (E) 11:23:59 437.325/437.525
SEEDS 29 Aug 11:18:05 11:20:42 16° 291° (WNW) 11:23:07 437.485
Cosmos 2504 29 Aug 11:19:57 11:28:18 57° 78° (ENE) 11:36:11 435.465 / 435.565
CINEMA 3 29 Aug 11:20:14 11:24:21 25° 291° (WNW) 11:28:17 145.822/145.860
VERMONT LUNAR 29 Aug 11:22:20 11:24:35 19° 212° (SSW) 11:26:48 437.305
CUBEBUG 2 29 Aug 11:29:58 11:34:22 39° 288° (WNW) 11:38:37 437.445
VELOX 1 29 Aug 11:33:42 11:36:21 16° 92° (E) 11:39:13 145.980
ZACube-1 29 Aug 11:42:49 11:47:11 47° 286° (WNW) 11:51:25 437.345
UWE-3 29 Aug 11:43:13 11:47:28 36° 288° (WNW) 11:51:33 435.000/436.395/437.385
ISS 29 Aug 11:45:39 11:47:52 17° 333° (NNW) 11:50:02 145.825
UNISAT 6 29 Aug 11:49:32 11:53:51 37° 263° (W) 11:58:13 437.425
FUNcube-1 29 Aug 11:49:41 11:53:56 41° 287° (WNW) 11:58:02 145.935
POLYITAN 1 29 Aug 11:56:18 12:00:33 85° 258° (WSW) 12:04:51 437.675
PCSat 29 Aug 11:57:49 12:02:44 35° 55° (NE) 12:07:40 145.827
POPSAT HIP 1 29 Aug 12:00:06 12:04:20 79° 258° (WSW) 12:08:38 437.405
DUCHIFAT 1 29 Aug 12:03:15 12:07:27 75° 257° (WSW) 12:11:43 145.980
50 SAT 29 Aug 12:05:46 12:09:30 45° 99° (E) 12:13:12 437.505
ESTCUBE 1 29 Aug 12:15:52 12:20:00 36° 98° (E) 12:24:09 437.505/2401.250
QB50P2 29 Aug 12:16:30 12:20:36 47° 261° (W) 12:24:44 145.880/145.840
NANOSAT C BR1 29 Aug 12:19:53 12:23:56 45° 261° (W) 12:28:02 145.865
TIGRISAT 29 Aug 12:20:35 12:23:54 19° 268° (W) 12:27:06 435.000
CUSAT 1 29 Aug 12:22:18 12:30:03 85° 263° (W) 12:38:20 437.405
BUGSAT 1 29 Aug 12:23:50 12:27:51 69° 259° (W) 12:31:57 437.445
AUBIESAT-1 29 Aug 12:28:21 12:30:32 13° 266° (W) 12:32:28 437.475
DANDE 29 Aug 12:28:46 12:36:16 78° 81° (E) 12:44:49 436.750
DX 1 29 Aug 12:29:16 12:33:39 69° 285° (WNW) 12:37:59 434.975-435.025
QB50P1 29 Aug 12:32:39 12:36:27 31° 264° (W) 12:40:15 145.935-145.965
ANTELSAT 29 Aug 12:38:08 12:40:01 12° 271° (W) 12:41:37 437.575/2403.000
AISAT 29 Aug 12:39:34 12:44:05 84° 284° (WNW) 12:48:34 437.250
PHONESAT 2.4 29 Aug 12:46:19 12:49:38 52° 206° (SSW) 12:52:58 2401.200-2431.200
UKube-1 29 Aug 12:46:37 12:50:48 48° 286° (WNW) 12:54:58 .
CUBEBUG 1 29 Aug 12:49:08 12:53:33 73° 101° (ESE) 12:57:58 437.445
HUMSAT D 29 Aug 12:52:42 12:55:50 20° 291° (WNW) 12:58:49 437.325/437.525
SO-50 29 Aug 12:52:45 12:56:22 20° 250° (WSW) 12:59:46 436.795
SPROUT 29 Aug 12:56:28 13:00:00 24° 95° (E) 13:03:35 437.525
VELOX 1 29 Aug 13:08:56 13:13:07 40° 287° (WNW) 13:17:16 145.980
Cosmos 2504 29 Aug 13:13:08 13:19:59 27° 276° (W) 13:26:17 435.465 / 435.565
PCSat 29 Aug 13:41:24 13:46:03 29° 251° (WSW) 13:50:36 145.827
50 SAT 29 Aug 13:42:23 13:43:39 11° 293° (WNW) 13:44:42 437.505
Oscar 19 29 Aug 13:52:09 13:57:13 62° 74° (ENE) 14:02:22 437.125/150
ESTCUBE 1 29 Aug 13:53:26 13:56:38 19° 291° (WNW) 13:59:40 437.505/2401.250
CUSAT 1 29 Aug 14:07:23 14:11:57 16° 275° (W) 14:16:06 437.405
SWISSCUBE 29 Aug 14:08:11 14:10:50 15° 91° (E) 14:13:42 437.505
TISAT 1 29 Aug 14:11:08 14:15:25 78° 284° (WNW) 14:19:40 437.305
Gurwin Techsat 1B 29 Aug 14:11:30 14:15:57 29° 69° (ENE) 14:20:30 435.225
DANDE 29 Aug 14:13:32 14:19:02 20° 272° (W) 14:24:30 436.750
SPROUT 29 Aug 14:32:25 14:36:01 25° 289° (WNW) 14:39:30 437.525
ITUPSAT 1 29 Aug 14:44:01 14:48:18 33° 97° (E) 14:52:37 437.325
ITAMSAT 1 29 Aug 14:45:02 14:49:59 49° 73° (ENE) 14:54:59 435.822/435.867
GONETS M04 29 Aug 14:47:53 14:56:33 60° 79° (ENE) 15:05:15
JAS-2 29 Aug 15:00:47 15:07:52 47° 70° (ENE) 15:15:20 435.910
RS-15 29 Aug 15:15:42 15:20:47 15° 101° (E) 15:26:54 29.354- 29.394
BEESAT 29 Aug 15:18:42 15:23:29 83° 103° (ESE) 15:28:14 436.000
BEESAT 3 29 Aug 15:23:48 15:26:48 21° 112° (ESE) 15:29:55 437.485
AO-7 29 Aug 15:24:59 15:32:14 36° 63° (ENE) 15:39:38 29.400- 29.500
BEESAT 2 29 Aug 15:31:56 15:34:47 19° 111° (ESE) 15:37:46 435.950
Oscar 19 29 Aug 15:34:29 15:37:06 13° 271° (W) 15:39:24 437.125/150
Cosmos 2499 29 Aug 15:37:08 15:44:35 32° 70° (ENE) 15:51:48 435.465 / 435.565
KKS-1 29 Aug 15:37:44 15:40:55 19° 93° (E) 15:44:13 437.445
SWISSCUBE 29 Aug 15:44:25 15:48:59 47° 287° (WNW) 15:53:32 437.505
HORYU 2 29 Aug 15:44:31 15:47:54 22° 69° (ENE) 15:51:23 437.375
Gurwin Techsat 1B 29 Aug 15:51:09 15:55:52 31° 264° (W) 16:00:32 435.225
JUGNU 29 Aug 15:53:31 15:56:38 15° 176° (S) 15:59:46 437.505
ITUPSAT 1 29 Aug 16:22:18 16:26:01 22° 291° (WNW) 16:29:37 437.325
ITAMSAT 1 29 Aug 16:26:23 16:29:49 17° 268° (W) 16:33:02 435.822/435.867
ISS 29 Aug 16:37:48 16:40:34 25° 32° (NNE) 16:43:20 145.825
GONETS M04 29 Aug 16:45:50 16:52:53 27° 275° (W) 16:59:37
JAS-2 29 Aug 16:46:16 16:53:01 34° 267° (W) 16:59:56 435.910
SRMSAT 29 Aug 16:58:42 17:01:21 13° 172° (S) 17:04:04 437.500
BEESAT 3 29 Aug 17:00:57 17:04:34 30° 307° (NW) 17:08:10 437.485
STARS 29 Aug 17:01:19 17:05:47 80° 284° (WNW) 17:10:12 437.465
MOZHAYETS 4 29 Aug 17:06:48 17:10:34 26° 95° (E) 17:14:23
BEESAT 2 29 Aug 17:08:54 17:12:37 33° 306° (NW) 17:16:21 435.950
KKS-1 29 Aug 17:13:34 17:17:38 34° 289° (WNW) 17:21:39 437.445
AO-7 29 Aug 17:16:47 17:24:50 49° 259° (W) 17:32:49 29.400- 29.500
HORYU 2 29 Aug 17:20:21 17:24:21 31° 263° (W) 17:28:21 437.375
RS-15 29 Aug 17:20:47 17:31:38 81° 117° (ESE) 17:42:57 29.354- 29.394
AIST 2 29 Aug 17:26:21 17:30:34 72° 118° (ESE) 17:34:49 435.215
Cosmos 2499 29 Aug 17:29:49 17:38:06 50° 270° (W) 17:45:46 435.465 / 435.565
JUGNU 29 Aug 17:41:59 17:44:52 14° 186° (S) 17:47:42 437.505
Cubesat XI-IV 29 Aug 17:45:02 17:48:21 18° 66° (ENE) 17:51:53 437.490
ISS 29 Aug 18:14:05 18:16:58 28° 227° (SW) 18:19:47 145.825
CUTE-I 29 Aug 18:28:52 18:33:54 45° 72° (ENE) 18:38:58 437.470
MOZHAYETS 4 29 Aug 18:43:55 18:47:44 26° 289° (WNW) 18:51:27
SRMSAT 29 Aug 18:46:27 18:49:45 15° 182° (S) 18:53:02 437.500
CUBESAT XI-V 29 Aug 18:53:06 18:57:09 30° 96° (E) 19:01:16 437.345
AIST 2 29 Aug 19:07:49 19:09:39 12° 316° (NW) 19:11:21 435.215
STRAND 1 29 Aug 19:19:48 19:22:27 15° 91° (E) 19:25:21 437.568
Cubesat XI-IV 29 Aug 19:22:52 19:28:04 54° 260° (W) 19:33:17 437.490
HO-68 29 Aug 19:25:36 19:29:08 15° 58° (ENE) 19:33:05 435.675
RS-15 29 Aug 19:36:02 19:45:31 30° 323° (NW) 19:55:05 29.354- 29.394
DOVE 4 29 Aug 19:41:21 19:42:22 11° 64° (ENE) 19:43:40 437.250
CANX-2 29 Aug 20:06:14 20:08:33 15° 68° (ENE) 20:11:03 2200.000
BRITE-PL 29 Aug 20:08:02 20:12:14 63° 76° (ENE) 20:16:44 437.365/2234.400
CUTE-I 29 Aug 20:10:21 20:14:14 20° 268° (W) 20:17:56 437.470
O/OREOS (USA 219) 29 Aug 20:24:15 20:28:45 67° 292° (WNW) 20:33:18 437.305
PRISM 29 Aug 20:25:11 20:29:10 49° 100° (E) 20:33:10 437.425
AIST 1 29 Aug 20:25:43 20:30:04 87° 83° (E) 20:34:24
CUBESAT XI-V 29 Aug 20:30:45 20:34:28 23° 290° (WNW) 20:38:05 437.345
SEEDS 29 Aug 20:31:27 20:34:29 20° 70° (ENE) 20:37:39 437.485
SRMSAT 29 Aug 20:36:33 20:38:08 11° 192° (SSW) 20:39:38 437.500
CINEMA 3 29 Aug 20:42:29 20:45:58 22° 69° (ENE) 20:49:42 145.822/145.860
GOMX 1 29 Aug 20:49:29 20:53:51 78° 259° (WSW) 20:58:34 467.674
CUBEBUG 2 29 Aug 20:51:34 20:53:12 12° 65° (ENE) 20:55:07 437.445
COMPASS 1 29 Aug 20:56:52 21:00:31 30° 72° (ENE) 21:04:14 437.405
STRAND 1 29 Aug 20:57:04 21:02:05 56° 286° (WNW) 21:07:03 437.568
Cosmos 2491 29 Aug 20:57:25 21:06:01 59° 79° (ENE) 21:14:39 435.465 / 435.565
UWE-3 29 Aug 21:03:37 21:05:24 12° 66° (ENE) 21:07:26 435.000/436.395/437.385
YUBILEINY 29 Aug 21:03:50 21:10:55 30° 85° (E) 21:18:18 435.215
HO-68 29 Aug 21:08:49 21:15:59 86° 74° (ENE) 21:23:13 435.675
AAUSAT CUBESAT 2 29 Aug 21:09:08 21:12:56 34° 73° (ENE) 21:16:46 437.432
FUNcube-1 29 Aug 21:10:35 21:10:44 10° 65° (ENE) 21:11:12 145.935
DOVE 4 29 Aug 21:15:01 21:19:28 70° 260° (W) 21:24:14 437.250
CUTE 1.7 + AOD 2 29 Aug 21:26:12 21:30:29 71° 259° (W) 21:34:46 437.475
CANX-2 29 Aug 21:40:03 21:44:09 42° 262° (W) 21:48:15 2200.000
DELFI C3 29 Aug 21:50:57 21:54:23 28° 72° (ENE) 21:57:53 145.870
RS-15 29 Aug 21:57:48 22:03:26 14° 357° (N) 22:09:06 29.354- 29.394
Oscar 11 29 Aug 21:58:03 22:02:18 57° 75° (ENE) 22:06:35 145.826/435.025
PRISM 29 Aug 22:02:33 22:04:13 12° 293° (WNW) 22:05:41 437.425
SEEDS 29 Aug 22:06:19 22:10:06 30° 264° (W) 22:13:50 437.485
HUMSAT D 29 Aug 22:06:35 22:09:15 17° 69° (ENE) 22:12:06 437.325/437.525
CINEMA 3 29 Aug 22:18:47 22:22:57 33° 265° (W) 22:27:16 145.822/145.860
CUBEBUG 2 29 Aug 22:24:48 22:29:21 64° 260° (W) 22:34:02 437.445
VELOX 1 29 Aug 22:30:42 22:31:48 11° 65° (ENE) 22:33:10 145.980
COMPASS 1 29 Aug 22:33:08 22:36:13 19° 267° (W) 22:39:12 437.405
ZACube-1 29 Aug 22:35:26 22:39:57 84° 258° (WSW) 22:44:33 437.345
UWE-3 29 Aug 22:36:54 22:41:25 61° 261° (W) 22:46:02 435.000/436.395/437.385
FUNcube-1 29 Aug 22:41:59 22:46:29 74° 260° (W) 22:51:04 145.935
AAUSAT CUBESAT 2 29 Aug 22:45:55 22:48:39 16° 268° (W) 22:51:14 437.432
50 SAT 29 Aug 22:47:25 22:50:08 19° 70° (ENE) 22:52:59 437.505
ANTELSAT 29 Aug 22:54:24 22:56:55 15° 90° (E) 22:59:37 437.575/2403.000
Cosmos 2491 29 Aug 22:55:21 23:02:23 27° 275° (W) 23:09:07 435.465 / 435.565
YUBILEINY 29 Aug 22:58:49 23:07:22 53° 283° (WNW) 23:15:55 435.215
HO-68 29 Aug 23:00:48 23:04:41 14° 272° (W) 23:08:04 435.675
ESTCUBE 1 29 Aug 23:13:25 23:17:02 25° 70° (ENE) 23:20:45 437.505/2401.250
DX 1 29 Aug 23:22:05 23:26:24 73° 75° (ENE) 23:30:44 434.975-435.025
DELFI C3 29 Aug 23:26:30 23:29:29 19° 267° (W) 23:32:19 145.870
AISAT 29 Aug 23:34:35 23:38:55 63° 75° (ENE) 23:43:18 437.250
Oscar 11 29 Aug 23:37:51 23:38:55 11° 271° (W) 23:39:41 145.826/435.025
UKube-1 29 Aug 23:38:27 23:42:46 80° 259° (W) 23:47:05 .
HUMSAT D 29 Aug 23:40:41 23:44:42 38° 263° (W) 23:48:44 437.325/437.525
CUBEBUG 1 29 Aug 23:42:47 23:46:51 42° 73° (ENE) 23:50:57 437.445
UNISAT 6 29 Aug 23:43:50 23:48:21 56° 100° (E) 23:52:44 437.425
POLYITAN 1 29 Aug 23:45:06 23:48:08 19° 93° (E) 23:51:16 437.675
Cosmos 2504 29 Aug 23:46:20 23:53:44 45° 89° (E) 00:01:41 435.465 / 435.565
POPSAT HIP 1 29 Aug 23:48:33 23:51:42 20° 94° (E) 23:54:58 437.405
SPROUT 29 Aug 23:49:21 23:51:38 15° 68° (ENE) 23:54:05 437.525
DUCHIFAT 1 29 Aug 23:51:07 23:54:18 21° 94° (E) 23:57:36 145.980
VELOX 1 30 Aug 00:03:32 00:07:53 62° 260° (W) 00:12:15 145.980
QB50P2 30 Aug 00:04:21 00:08:13 32° 97° (E) 00:12:05 145.880/145.840
NANOSAT C BR1 30 Aug 00:07:14 00:11:06 33° 97° (E) 00:14:59 145.865
AUBIESAT-1 30 Aug 00:09:01 00:12:58 69° 106° (ESE) 00:16:34 437.475
BUGSAT 1 30 Aug 00:09:05 00:12:14 21° 94° (E) 00:15:29 437.445
M-CUBED/EXP-1 PRIME 30 Aug 00:12:01 00:16:03 88° 295° (WNW) 00:19:43 437.505
RS-15 30 Aug 00:13:04 00:21:59 25° 32° (NNE) 00:31:31 29.354- 29.394
TIGRISAT 30 Aug 00:13:21 00:17:56 70° 284° (WNW) 00:22:22 435.000
QB50P1 30 Aug 00:19:41 00:23:51 48° 99° (E) 00:28:00 145.935-145.965
50 SAT 30 Aug 00:21:03 00:24:30 27° 264° (W) 00:27:54 437.505
ANTELSAT 30 Aug 00:29:38 00:33:59 43° 287° (WNW) 00:38:13 437.575/2403.000
ESTCUBE 1 30 Aug 00:50:03 00:53:50 26° 265° (W) 00:57:33 437.505/2401.250
TISAT 1 30 Aug 01:00:28 01:04:33 54° 75° (ENE) 01:08:40 437.305
SWISSCUBE 30 Aug 01:13:03 01:15:27 14° 66° (ENE) 01:18:04 437.505
POLYITAN 1 30 Aug 01:20:15 01:24:06 31° 288° (WNW) 01:27:52 437.675
BEESAT 3 30 Aug 01:21:03 01:25:04 71° 59° (ENE) 01:29:01 437.485
CUBEBUG 1 30 Aug 01:21:05 01:23:28 14° 269° (W) 01:25:39 437.445
UNISAT 6 30 Aug 01:22:29 01:24:39 13° 294° (WNW) 01:26:34 437.425
SPROUT 30 Aug 01:23:17 01:27:22 43° 261° (W) 01:31:28 437.525
POPSAT HIP 1 30 Aug 01:23:49 01:27:36 29° 289° (WNW) 01:31:18 437.405
SO-50 30 Aug 01:23:51 01:27:38 25° 111° (ESE) 01:31:36 436.795
DUCHIFAT 1 30 Aug 01:26:24 01:30:08 28° 289° (WNW) 01:33:46 145.980
CUSAT 1 30 Aug 01:27:51 01:31:17 55° 284° (WNW) 01:35:49 437.405
BEESAT 2 30 Aug 01:29:42 01:33:44 65° 59° (ENE) 01:37:42 435.950
Cosmos 2504 30 Aug 01:38:52 01:46:08 35° 288° (WNW) 01:53:38 435.465 / 435.565
DANDE 30 Aug 01:39:45 01:42:51 69° 281° (W) 01:46:53 436.750
QB50P2 30 Aug 01:40:48 01:43:53 19° 291° (WNW) 01:46:51 145.880/145.840
NANOSAT C BR1 30 Aug 01:43:40 01:46:43 19° 291° (WNW) 01:49:36 145.865
BUGSAT 1 30 Aug 01:44:00 01:47:42 29° 289° (WNW) 01:51:21 437.445
ITUPSAT 1 30 Aug 01:48:32 01:52:38 30° 70° (ENE) 01:56:49 437.325
AIST 2 30 Aug 01:50:58 01:54:15 22° 50° (NE) 01:57:33 435.215
GONETS M04 30 Aug 01:56:45 01:58:20 11° 78° (ENE) 02:00:46
QB50P1 30 Aug 01:57:09 01:59:19 13° 293° (WNW) 02:01:17 145.935-145.965
Oscar 19 30 Aug 02:06:50 02:11:09 27° 95° (E) 02:15:32 437.125/150
BEESAT 30 Aug 02:22:28 02:27:13 71° 75° (ENE) 02:31:59 436.000
RS-15 30 Aug 02:25:01 02:36:56 76° 58° (ENE) 02:49:15 29.354- 29.394
Gurwin Techsat 1B 30 Aug 02:31:35 02:33:56 13° 89° (E) 02:36:36 435.225
KKS-1 30 Aug 02:34:38 02:36:47 14° 66° (ENE) 02:39:10 437.445
PCSat 30 Aug 02:36:35 02:41:47 52° 113° (ESE) 02:47:04 145.827
TISAT 1 30 Aug 02:39:51 02:40:43 10° 271° (W) 02:41:17 437.305
SWISSCUBE 30 Aug 02:48:12 02:52:53 55° 260° (W) 02:57:34 437.505
ITAMSAT 1 30 Aug 03:01:08 03:04:58 21° 93° (E) 03:08:58 435.822/435.867
SO-50 30 Aug 03:03:35 03:08:00 35° 308° (NW) 03:12:31 436.795
ITUPSAT 1 30 Aug 03:26:34 03:30:32 25° 265° (W) 03:34:23 437.325
AIST 2 30 Aug 03:29:10 03:32:51 30° 246° (WSW) 03:36:25 435.215
GONETS M04 30 Aug 03:45:18 03:53:54 74° 94° (E) 04:02:36
Oscar 19 30 Aug 03:45:54 03:50:31 32° 290° (WNW) 03:55:02 437.125/150
VERMONT LUNAR 30 Aug 03:50:41 03:52:27 15° 146° (SE) 03:54:16 437.305
STARS 30 Aug 03:55:23 03:59:44 65° 75° (ENE) 04:04:08 437.465
JAS-2 30 Aug 03:59:10 04:05:53 48° 96° (E) 04:11:50 435.910
MOZHAYETS 4 30 Aug 04:06:51 04:10:03 19° 69° (ENE) 04:13:23
KKS-1 30 Aug 04:08:43 04:13:02 50° 261° (W) 04:17:23 437.445
Gurwin Techsat 1B 30 Aug 04:09:11 04:14:27 65° 286° (WNW) 04:19:42 435.225
Cosmos 2499 30 Aug 04:10:27 04:16:57 27° 84° (E) 04:24:01 435.465 / 435.565
PCSat 30 Aug 04:21:26 04:25:34 21° 310° (NW) 04:29:35 145.827
RS-15 30 Aug 04:38:54 04:48:37 28° 255° (WSW) 04:57:57 29.354- 29.394
ITAMSAT 1 30 Aug 04:39:49 04:44:39 40° 289° (WNW) 04:49:26 435.822/435.867
O/OREOS (USA 219) 30 Aug 04:59:05 05:01:30 14° 55° (NE) 05:04:06 437.305
HORYU 2 30 Aug 05:13:27 05:17:53 59° 101° (E) 05:22:15 437.375
AO-7 30 Aug 05:20:45 05:29:02 69° 104° (ESE) 05:37:16 29.400- 29.500
VERMONT LUNAR 30 Aug 05:25:37 05:28:36 88° 175° (S) 05:31:36 437.305
MOZHAYETS 4 30 Aug 05:42:44 05:47:02 37° 263° (W) 05:51:18
JAS-2 30 Aug 05:44:45 05:50:35 28° 296° (WNW) 05:55:44 435.910
GONETS M04 30 Aug 05:45:24 05:51:47 21° 294° (WNW) 05:57:47
CUBESAT XI-V 30 Aug 05:54:32 05:58:02 22° 70° (ENE) 06:01:39 437.345
Cosmos 2499 30 Aug 06:01:21 06:09:33 59° 282° (WNW) 06:18:14 435.465 / 435.565
STRAND 1 30 Aug 06:33:22 06:36:34 18° 66° (ENE) 06:39:57 437.568
O/OREOS (USA 219) 30 Aug 06:36:51 06:41:21 54° 253° (WSW) 06:45:48 437.305
CUTE-I 30 Aug 06:49:09 06:53:08 22° 93° (E) 06:57:16 437.470
HORYU 2 30 Aug 06:52:17 06:54:03 12° 295° (WNW) 06:55:33 437.375
VERMONT LUNAR 30 Aug 07:02:25 07:05:13 36° 355° (N) 07:08:01 437.305
PHONESAT 2.4 30 Aug 07:06:28 07:09:47 52° 155° (SSE) 07:13:07 2401.200-2431.200
PRISM 30 Aug 07:13:05 07:16:27 26° 71° (ENE) 07:19:52 437.425
AO-7 30 Aug 07:14:44 07:21:14 25° 301° (WNW) 07:27:27 29.400- 29.500
YUBILEINY 30 Aug 07:19:28 07:21:44 11° 58° (ENE) 07:24:47 435.215
CUBESAT XI-V 30 Aug 07:31:15 07:35:20 31° 264° (W) 07:39:23 437.345
Cubesat XI-IV 30 Aug 07:42:31 07:47:51 75° 102° (ESE) 07:53:11 437.490
Cosmos 2491 30 Aug 08:06:38 08:08:00 11° 78° (ENE) 08:10:12 435.465 / 435.565
STRAND 1 30 Aug 08:10:28 08:15:25 50° 261° (W) 08:20:22 437.568
BRITE-PL 30 Aug 08:14:36 08:19:24 30° 95° (E) 08:24:23 437.365/2234.400
CUTE-I 30 Aug 08:28:25 08:33:23 41° 289° (WNW) 08:38:19 437.470
VERMONT LUNAR 30 Aug 08:39:04 08:41:58 47° 12° (NNE) 08:44:52 437.305
HO-68 30 Aug 08:41:08 08:45:35 18° 90° (E) 08:50:25 435.675
PHONESAT 2.4 30 Aug 08:44:24 08:47:43 47° 350° (N) 08:51:01 2401.200-2431.200
PRISM 30 Aug 08:48:39 08:51:51 21° 265° (W) 08:54:57 437.425
AIST 1 30 Aug 08:52:24 08:56:33 57° 94° (E) 09:00:44
GOMX 1 30 Aug 08:53:17 08:58:26 42° 97° (E) 09:03:38 467.674
YUBILEINY 30 Aug 09:11:49 09:20:39 70° 81° (E) 09:29:24 435.215
CUTE 1.7 + AOD 2 30 Aug 09:14:33 09:17:52 23° 94° (E) 09:21:16 437.475
ISS 30 Aug 09:15:00 09:17:44 26° 132° (SE) 09:20:31 145.825
DOVE 4 30 Aug 09:16:19 09:21:20 42° 97° (E) 09:26:20 437.250
Cubesat XI-IV 30 Aug 09:24:55 09:27:24 13° 296° (WNW) 09:29:34 437.490
CANX-2 30 Aug 09:27:48 09:31:44 37° 97° (E) 09:35:38 2200.000
Cosmos 2504 30 Aug 09:39:28 09:41:44 12° 58° (ENE) 09:44:41 435.465 / 435.565
Oscar 11 30 Aug 09:49:53 09:51:34 12° 90° (E) 09:53:30 145.826/435.025
ANTELSAT 30 Aug 09:52:17 09:53:38 11° 65° (ENE) 09:55:16 437.575/2403.000
SEEDS 30 Aug 09:52:33 09:56:38 51° 99° (E) 10:00:42 437.485
BRITE-PL 30 Aug 09:52:56 09:57:52 34° 289° (WNW) 10:02:51 437.365/2234.400
SO-50 30 Aug 09:58:08 10:00:49 15° 42° (NE) 10:03:39 436.795
